Retour au catalogue

WESTFORD NEEDLES

ActifPO
NORAD 18688·DEBRIS·🇺🇸 United States

Lancé May 9, 1963 depuis Vandenberg Space Force Base

Loading…

Prochains Passages (prochaines 24 heures)

TLE

PériméSource: Space-Track

Époque: Aug 25, 2026, 12:50 UTC

1 18688U 63014DM  26237.53526406 -.00000012  00000-0 -70224-2 0  9998
2 18688  87.3632 196.0742 0028641  47.6574 312.6700  8.65107462125337

Suivez WESTFORD NEEDLES en temps réel avec AllMySat

Download on the App Store